TimeCDT,TemperatureF,Dew PointF,Humidity,Sea Level PressureIn,VisibilityMPH,Wind Direction,Wind SpeedMPH,Gust SpeedMPH,PrecipitationIn,Events,Conditions,WindDirDegrees,DateUTC
12:58 AM,45.7,34.7,65,30.16,10.0,WNW,4.6,-,N/A,,Clear,300,2013-03-13 05:58:00
1:58 AM,45.9,34.5,65,30.17,10.0,NW,5.8,-,N/A,,Clear,320,2013-03-13 06:58:00
2:58 AM,45.5,34.5,65,30.17,10.0,NW,8.1,-,N/A,,Clear,320,2013-03-13 07:58:00
3:58 AM,44.8,34.3,67,30.18,10.0,NW,6.9,-,N/A,,Clear,320,2013-03-13 08:58:00
4:58 AM,42.6,33.8,71,30.19,10.0,NW,3.5,-,N/A,,Clear,320,2013-03-13 09:58:00
5:58 AM,41.5,34.2,75,30.22,10.0,NW,1.2,-,N/A,,Clear,320,2013-03-13 10:58:00
6:58 AM,38.8,33.8,82,30.24,10.0,NNW,2.3,-,N/A,,Clear,330,2013-03-13 11:58:00
7:58 AM,42.8,35.4,75,30.26,10.0,WNW,6.9,-,N/A,,Clear,300,2013-03-13 12:58:00
8:58 AM,49.3,35.6,59,30.28,10.0,NW,5.8,-,N/A,,Clear,310,2013-03-13 13:58:00
9:58 AM,55.8,33.1,42,30.28,10.0,North,10.4,-,N/A,,Clear,350,2013-03-13 14:58:00
10:58 AM,58.6,29.3,33,30.29,10.0,NNW,8.1,-,N/A,,Clear,340,2013-03-13 15:58:00
11:58 AM,60.6,30.9,33,30.28,10.0,WNW,9.2,-,N/A,,Clear,290,2013-03-13 16:58:00
12:58 PM,62.4,32.0,32,30.25,10.0,WNW,12.7,23.0,N/A,,Clear,290,2013-03-13 17:58:00
1:37 PM,64.4,32.0,30,30.22,10.0,West,12.7,20.7,N/A,,Clear,260,2013-03-13 18:37:00
1:43 PM,64.4,30.2,28,30.22,10.0,WNW,15.0,24.2,N/A,,Clear,300,2013-03-13 18:43:00
1:44 PM,62.6,30.2,30,30.22,10.0,NW,13.8,24.2,N/A,,Clear,310,2013-03-13 18:44:00
1:58 PM,63.3,30.6,29,30.23,10.0,West,11.5,-,N/A,,Clear,270,2013-03-13 18:58:00
2:22 PM,64.4,32.0,30,30.20,10.0,NNW,16.1,21.9,N/A,,Clear,330,2013-03-13 19:22:00
2:33 PM,64.4,32.0,30,30.20,10.0,WNW,15.0,21.9,N/A,,Clear,290,2013-03-13 19:33:00
2:58 PM,63.5,22.8,21,30.21,10.0,NW,18.4,24.2,N/A,,Clear,320,2013-03-13 19:58:00
3:06 PM,62.6,24.8,24,30.20,10.0,West,15.0,24.2,N/A,,Clear,280,2013-03-13 20:06:00
3:45 PM,64.4,23.0,21,30.19,10.0,West,19.6,24.2,N/A,,Clear,280,2013-03-13 20:45:00
3:58 PM,63.9,24.4,22,30.20,10.0,WNW,15.0,18.4,N/A,,Clear,290,2013-03-13 20:58:00
4:58 PM,63.0,22.1,21,30.20,10.0,NNW,17.3,21.9,N/A,,Clear,340,2013-03-13 21:58:00
5:58 PM,60.6,20.3,21,30.22,10.0,NW,11.5,-,N/A,,Clear,320,2013-03-13 22:58:00
6:58 PM,56.7,20.8,25,30.23,10.0,NW,8.1,-,N/A,,Clear,310,2013-03-13 23:58:00
7:58 PM,53.8,21.2,28,30.25,10.0,NW,6.9,-,N/A,,Clear,310,2013-03-14 00:58:00
8:58 PM,50.2,22.8,34,30.26,10.0,WNW,5.8,-,N/A,,Clear,300,2013-03-14 01:58:00
9:58 PM,48.4,24.8,40,30.27,10.0,NW,4.6,-,N/A,,Clear,310,2013-03-14 02:58:00
10:58 PM,46.6,25.9,44,30.30,10.0,NW,6.9,-,N/A,,Clear,310,2013-03-14 03:58:00
11:58 PM,46.0,25.2,44,30.30,10.0,NW,6.9,-,N/A,,Clear,310,2013-03-14 04:58:00